[[{"header":{"parameterUnit":"m.s-1","parameterCategory":2,"la1":30.2991,"la2":30.254,"lo1":-89.0895,"lo2":-89.0444,"dy":0.0017,"dx":0.0017,"nx":28,"ny":28,"refTime":"2023-06-26T21:00:00:Z","depth":"0","parameterNumber":2,"parameterNumberName":"U-component_of_CURRENTS"},"data":[0,0,0,0,0,0,0,0,0,0,0,0,0,0,0,0,0,0,0,0,0,0,0,0,0,0,0,0,0,0,0,0,0,0,0,0,0,0,0,0,0,0,0,0,0,0,0,0,0,0,0,0,0,0,0,0,0,0,0.1762,0.1761,0,0.1755,0.1756,0.1756,0.1789,0.179,0.179,0.179,0.1934,0.1937,0.1941,0,0,0,0,0,0,0,0,0,0,0,0,0,0.1856,0.1855,0.1762,0.1761,0.1761,0.1755,0.1756,0.1756,0.1789,0.179,0.179,0.1791,0.1933,0.1937,0.1941,0,0,0,0,0,0,0,0,0,0,0,0,0,0.1835,0.1854,0.1762,0.1772,0.1773,0.1755,0.1756,0.1756,0.1789,0.179,0.179,0.1791,0.1931,0.1936,0.1942,0.1961,0,0,0.1957,0.196,0,0,0,0,0,0,0,0,0.1836,0.1832,0.1771,0.1771,0.1772,0.1769,0.1841,0.183,0.1789,0.1789,0.179,0.1791,0.1888,0.1897,0.1901,0.1968,0.1974,0.1958,0.1961,0.1963,0.1965,0,0,0,0,0,0,0,0.1837,0.1833,0.1765,0.177,0.1771,0.1795,0.1793,0.184,0.1843,0.1789,0.179,0.178,0.189,0.1895,0.1905,0.1976,0.1958,0.1962,0.1965,0.1967,0.2203,0.2206,0,0,0,0,0,0,0.1822,0.1833,0.1766,0.1765,0.1799,0.1792,0.179,0.1774,0.1839,0.1846,0.1779,0.1781,0.1886,0.1899,0.191,0.2011,0.1963,0.1968,0.1971,0.22,0.2204,0.2208,0,0,0,0,0,0,0.1824,0.1816,0.1766,0.1795,0.1789,0.1789,0.1771,0.1773,0.1781,0.1828,0.184,0.1784,0.1887,0.1903,0.1991,0.2014,0.197,0.1975,0.2197,0.2202,0.2206,0.2166,0,0,0,0,0,0,0.1827,0.1817,0.1804,0.1793,0.1787,0.1753,0.177,0.1772,0.1771,0.1774,0.1837,0.1851,0.1889,0.1984,0.1996,0.202,0.1979,0.2193,0.2199,0.2204,0.2163,0.2169,0.2173,0,0,0,0,0,0.183,0.18,0.1803,0.1795,0.1768,0.1752,0.1752,0.1758,0.177,0.177,0.1845,0.1849,0.2031,0.199,0.2004,0.203,0.219,0.2197,0.2204,0.2161,0.2168,0.2173,0,0,0,0,0,0,0.1829,0.1799,0.1803,0.1765,0.176,0.1755,0.1746,0.1756,0.1808,0.1823,0.1881,0.1901,0.1989,0.2028,0.1981,0.2125,0.2114,0.2124,0.2077,0.2083,0.2088,0.2097,0.1983,0,0,0,0,0,0.1822,0.1795,0.1781,0.1752,0.1746,0.175,0.1745,0.1752,0.1787,0.1808,0.1861,0.1942,0.2028,0.2068,0.2138,0.2206,0.2253,0.2241,0.2246,0.225,0.2274,0.2384,0.24,0.2231,0.2231,0.2231,0,0,0.1808,0.1792,0.1774,0.1751,0.1748,0.1751,0.1751,0.1738,0.1772,0.182,0.1893,0.1954,0.2054,0.214,0.2182,0.2173,0.2317,0.2259,0.226,0.2283,0.2393,0.2409,0.2424,0.2236,0.2235,0.2234,0,0,0.1772,0.1759,0.173,0.1733,0.1723,0.1739,0.1736,0.1743,0.1777,0.1844,0.1909,0.1998,0.2095,0.2184,0.2242,0.2325,0.234,0.2336,0.2362,0.2468,0.2482,0.2495,0.2531,0.2548,0.2336,0.2336,0.2336,0,0.1763,0.1733,0.1721,0.1712,0.1725,0.1737,0.1741,0.1776,0.1822,0.1875,0.1869,0.2065,0.2129,0.2277,0.2309,0.2333,0.237,0.2315,0.247,0.2484,0.2498,0.2533,0.2552,0.2335,0.2335,0.2336,0.2336,0,0.1717,0.1708,0.1694,0.1701,0.1716,0.1716,0.1763,0.1802,0.1846,0.1894,0.2025,0.2119,0.2243,0.2271,0.2315,0.2454,0.2437,0.2455,0.2437,0.2512,0.2544,0.2564,0.2334,0.2334,0.2334,0.2335,0,0,0.1673,0.1663,0.1664,0.1681,0.1719,0.1726,0.1799,0.1875,0.1934,0.2004,0.2099,0.2251,0.2292,0.2366,0.2425,0.2512,0.262,0.2519,0.2525,0.2524,0.2804,0.2728,0.2742,0.2654,0.2658,0.2662,0.2769,0,0.1655,0.1631,0.165,0.1679,0.1685,0.1751,0.1821,0.1901,0.1976,0.2068,0.2192,0.2296,0.2333,0.2381,0.2486,0.2594,0.268,0.2586,0.2762,0.2767,0.2666,0.2767,0.2682,0.2766,0.2789,0.2792,0.2794,0,0.1622,0.1619,0.162,0.1686,0.1698,0.1732,0.1855,0.1917,0.2061,0.2121,0.2248,0.2324,0.2489,0.2488,0.2724,0.2656,0.2743,0.2808,0.2815,0.2781,0.2732,0.2711,0.2802,0.2645,0.2826,0.2823,0.2821,0,0.16,0.1617,0.1623,0.164,0.1704,0.175,0.1809,0.1936,0.2004,0.2154,0.2204,0.2397,0.2483,0.2647,0.2774,0.2767,0.2986,0.2997,0.301,0.3002,0.2988,0.2971,0.2931,0.3178,0.3178,0.3178,0.3177,0,0.159,0.1604,0.1609,0.1615,0.1661,0.1726,0.1804,0.1887,0.2009,0.2098,0.2227,0.232,0.253,0.2664,0.2792,0.2946,0.3013,0.3044,0.3052,0.2966,0.2947,0.2857,0.2776,0.3181,0.3181,0.318,0.3179,0,0.1579,0.1572,0.1579,0.1622,0.1641,0.1678,0.1774,0.184,0.1945,0.206,0.2106,0.2288,0.2464,0.2625,0.2866,0.2949,0.301,0.3137,0.2976,0.2965,0.2836,0.2756,0.2694,0.2671,0.3203,0.3202,0.3202,0,0.1584,0.1566,0.1563,0.1571,0.1592,0.1647,0.1698,0.1803,0.187,0.2043,0.21,0.2271,0.2401,0.2672,0.2858,0.3052,0.2956,0.3054,0.3057,0.2834,0.2755,0.2619,0.2596,0.3007,0.3005,0.3003,0.3002,0,0.1602,0.157,0.157,0.1554,0.1583,0.1612,0.1685,0.1714,0.1854,0.1928,0.2053,0.2157,0.2425,0.2581,0.2793,0.2926,0.2861,0.3021,0.2876,0.2675,0.245,0.2426,0.2868,0.2986,0.2987,0.2988,0.2989,0.299,0.1626,0.16,0.1565,0.1555,0.1574,0.1579,0.1582,0.1654,0.1712,0.181,0.1951,0.2071,0.2303,0.2612,0.2702,0.2749,0.2772,0.2716,0.2659,0.2558,0.2467,0.2826,0.2895,0.2896,0.2897,0.2897,0.2898,0,0.1645,0.1598,0.1583,0.1547,0.1535,0.1551,0.1579,0.1562,0.1582,0.1698,0.1778,0.1974,0.2124,0.2319,0.2453,0.2377,0.2373,0.2296,0.2102,0.2128,0.2535,0.2455,0.2327,0.2327,0.2327,0.2328,0.2328,0.2328,0.1659,0.161,0.1562,0.1513,0.149,0.144,0.1424,0.1397,0.1436,0.1472,0.1559,0.1687,0.1856,0.1915,0.1907,0.1938,0.1793,0.1697,0.1715,0.1967,0.2001,0.2034,0.1939,0.1704,0.1704,0.1282,0.1278,0.1275]},{"header":{"parameterUnit":"m.s-1","parameterCategory":2,"la1":30.2991,"la2":30.254,"lo1":-89.0895,"lo2":-89.0444,"dy":0.0017,"dx":0.0017,"nx":28,"ny":28,"refTime":"2023-06-26T21:00:00:Z","depth":"0","parameterNumber":3,"parameterNumberName":"V-component_of_CURRENTS"},"data":[0,0,0,0,0,0,0,0,0,0,0,0,0,0,0,0,0,0,0,0,0,0,0,0,0,0,0,0,0,0,0,0,0,0,0,0,0,0,0,0,0,0,0,0,0,0,0,0,0,0,0,0,0,0,0,0,0,0,-0.004,-0.0038,0,0.0118,0.012,0.0122,0.0134,0.0132,0.013,0.0128,0.0148,0.015,0.0152,0,0,0,0,0,0,0,0,0,0,0,0,0,-0.0256,-0.0252,-0.004,-0.0038,-0.0036,0.0117,0.012,0.0122,0.0134,0.0132,0.013,0.0127,0.0147,0.015,0.0152,0,0,0,0,0,0,0,0,0,0,0,0,0,-0.0135,-0.0251,-0.004,-0.0013,-0.0009,0.0117,0.012,0.0123,0.0135,0.0132,0.0129,0.0126,0.0146,0.0149,0.0153,0.0231,0,0,0.0163,0.0165,0,0,0,0,0,0,0,0,-0.0142,-0.0127,-0.0019,-0.0015,-0.001,0.0101,0.0051,0.0151,0.0136,0.0082,0.0128,0.0125,0.012,0.0126,0.0166,0.0232,0.0233,0.0163,0.0166,0.0167,0.0168,0,0,0,0,0,0,0,-0.015,-0.0133,0.0024,-0.0017,-0.0012,0.0016,0.003,0.0071,0.0114,0.0087,0.0087,0.0103,0.0121,0.0163,0.0166,0.0233,0.0163,0.0166,0.0169,0.017,0.0367,0.037,0,0,0,0,0,0,-0.0174,-0.0141,0.0019,0.0029,-0.0087,0.0022,0.0037,0.007,0.0117,0.0122,0.0105,0.0103,0.0159,0.0163,0.0167,0.0265,0.0167,0.017,0.0172,0.0364,0.0368,0.0371,0,0,0,0,0,0,-0.0178,-0.016,0.0013,-0.0056,-0.0032,0.0028,0.0065,0.0075,0.0115,0.0132,0.0134,0.0134,0.0157,0.0162,0.0232,0.0264,0.0172,0.0175,0.036,0.0365,0.037,0.0458,0,0,0,0,0,0,-0.0185,-0.0162,-0.0133,-0.0056,-0.0029,0.0105,0.0068,0.008,0.0128,0.0126,0.0158,0.0157,0.0155,0.0227,0.0235,0.0268,0.0178,0.0356,0.0363,0.0368,0.0451,0.0465,0.0477,0,0,0,0,0,-0.0193,-0.013,-0.0132,-0.0112,0.0006,0.0108,0.0127,0.0159,0.0131,0.0178,0.02,0.0156,0.0269,0.0234,0.0242,0.0276,0.0353,0.0361,0.0368,0.0445,0.0462,0.0477,0,0,0,0,0,0,-0.0193,-0.012,-0.0122,-0.0037,0.003,0.0109,0.0162,0.017,0.0229,0.0219,0.0214,0.0219,0.029,0.0284,0.0245,0.0353,0.0298,0.0307,0.0354,0.037,0.0383,0.0384,0.018,0,0,0,0,0,-0.0184,-0.0124,-0.0058,0.0014,0.0045,0.0099,0.0145,0.0166,0.0221,0.0244,0.0268,0.0292,0.0334,0.0349,0.0392,0.046,0.0435,0.0484,0.0497,0.0508,0.0517,0.0529,0.0543,0.0395,0.0395,0.0395,0,0,-0.0162,-0.0115,-0.008,0.0017,0.0068,0.0149,0.0122,0.0203,0.0265,0.0237,0.0333,0.0349,0.0367,0.0446,0.0474,0.0438,0.0539,0.0517,0.0526,0.0529,0.0538,0.0552,0.0564,0.04,0.0399,0.0398,0,0,-0.0082,-0.005,0.0024,0.0082,0.0161,0.02,0.0219,0.0303,0.0331,0.0428,0.0416,0.0463,0.0531,0.0557,0.0571,0.0687,0.0616,0.0683,0.0741,0.0753,0.0764,0.0774,0.0755,0.0762,0.0679,0.0679,0.0679,0,-0.0067,0.0039,0.0066,0.015,0.0205,0.022,0.031,0.036,0.0456,0.0484,0.0466,0.0577,0.059,0.0668,0.0705,0.0715,0.0691,0.0673,0.0767,0.0776,0.0784,0.0762,0.0769,0.0684,0.0683,0.0683,0.0682,0,0.0067,0.0148,0.0202,0.0302,0.0364,0.0452,0.0502,0.0558,0.0576,0.0614,0.0697,0.0731,0.0782,0.0794,0.0786,0.0855,0.0808,0.0786,0.0717,0.0804,0.0776,0.0781,0.0691,0.0689,0.0688,0.0687,0,0,0.0107,0.0262,0.028,0.0343,0.0447,0.0513,0.0603,0.0692,0.0734,0.0802,0.0867,0.0943,0.0925,0.0943,0.0931,0.0942,0.0982,0.0886,0.0885,0.085,0.0979,0.0935,0.0936,0.096,0.0962,0.0964,0.0931,0,0.0202,0.0374,0.0424,0.0577,0.0669,0.0695,0.0774,0.0839,0.0877,0.0944,0.0957,0.102,0.0989,0.1002,0.1017,0.0999,0.1001,0.0991,0.0915,0.0913,0.0849,0.0944,0.0973,0.0946,0.0936,0.0936,0.0937,0,0.0317,0.0416,0.0579,0.0706,0.0742,0.0817,0.0909,0.0981,0.1045,0.1069,0.1112,0.1114,0.1161,0.111,0.1115,0.1101,0.1053,0.1024,0.1021,0.0954,0.0881,0.0862,0.0955,0.0929,0.0945,0.0944,0.0943,0,0.0344,0.0521,0.0647,0.07,0.0841,0.089,0.0945,0.1016,0.1064,0.1136,0.117,0.1212,0.1229,0.1202,0.1149,0.1128,0.1128,0.1088,0.1002,0.0996,0.0995,0.0987,0.1042,0.1087,0.1087,0.1087,0.1087,0,0.0435,0.0536,0.0664,0.0737,0.0845,0.0921,0.101,0.1061,0.1131,0.1195,0.1223,0.1271,0.125,0.1244,0.1183,0.1117,0.1154,0.1033,0.1001,0.1027,0.1022,0.0975,0.0898,0.1086,0.1086,0.1086,0.1087,0,0.0462,0.0558,0.0696,0.0834,0.0869,0.0935,0.1031,0.1088,0.1152,0.1234,0.1259,0.1317,0.1313,0.1272,0.1225,0.1155,0.1056,0.1053,0.107,0.1041,0.0926,0.085,0.0795,0.0771,0.096,0.0959,0.0958,0,0.0507,0.0583,0.0728,0.0781,0.0843,0.0936,0.0992,0.1082,0.114,0.1261,0.1302,0.1335,0.1365,0.1288,0.1189,0.1086,0.1016,0.1015,0.0993,0.0948,0.0841,0.0789,0.077,0.1022,0.1021,0.1021,0.1021,0,0.0564,0.0597,0.0687,0.0783,0.0858,0.0943,0.1031,0.1083,0.1191,0.1275,0.1369,0.1409,0.136,0.1293,0.1156,0.1084,0.0975,0.1003,0.0978,0.0918,0.0846,0.0799,0.0985,0.1019,0.1019,0.1019,0.102,0.102,0.0574,0.0613,0.07,0.0782,0.0857,0.0935,0.0985,0.1086,0.1187,0.1294,0.1368,0.1422,0.1364,0.1197,0.1113,0.0976,0.0916,0.0928,0.0844,0.0802,0.0778,0.094,0.0921,0.0921,0.0921,0.092,0.092,0,0.0591,0.0621,0.0691,0.0782,0.0827,0.0887,0.0996,0.1037,0.1139,0.1248,0.1325,0.1348,0.1272,0.1167,0.098,0.0854,0.0836,0.08,0.0774,0.0766,0.0954,0.0961,0.0926,0.0926,0.0926,0.0926,0.0926,0.0926,0.0606,0.0643,0.0664,0.0725,0.0776,0.0825,0.0877,0.0958,0.1032,0.1124,0.1172,0.1216,0.1207,0.0919,0.076,0.0735,0.0647,0.0616,0.0554,0.0724,0.0732,0.074,0.0738,0.0656,0.0656,0.0454,0.0451,0.045]}],[{"header":{"parameterUnit":"m.s-1","parameterCategory":2,"la1":30.2991,"la2":30.254,"lo1":-89.0895,"lo2":-89.0444,"dy":0.0017,"dx":0.0017,"nx":28,"ny":28,"refTime":"2023-06-26T21:00:00:Z","depth":"2","parameterNumber":2,"parameterNumberName":"U-component_of_CURRENTS"},"data":[0,0,0,0,0,0,0,0,0,0,0,0,0,0,0,0,0,0,0,0,0,0,0,0,0,0,0,0,0,0,0,0,0,0,0,0,0,0,0,0,0,0,0,0,0,0,0,0,0,0,0,0,0,0,0,0,0,0,0.0876,0.0876,0,0.0964,0.0965,0.0966,0.1018,0.1018,0.1018,0.1018,0.1119,0.1122,0.1125,0,0,0,0,0,0,0,0,0,0,0,0,0,0.0837,0.0838,0.0876,0.0876,0.0877,0.0964,0.0965,0.0967,0.1018,0.1018,0.1018,0.1018,0.1118,0.1122,0.1125,0,0,0,0,0,0,0,0,0,0,0,0,0,0.0885,0.0838,0.0875,0.0911,0.0915,0.0963,0.0965,0.0967,0.1018,0.1018,0.1018,0.1018,0.1117,0.1121,0.1125,0.1153,0,0,0.1138,0.114,0,0,0,0,0,0,0,0,0.0882,0.0887,0.0905,0.0909,0.0913,0.0977,0.0989,0.1029,0.1018,0.0982,0.1018,0.1018,0.1071,0.1079,0.11,0.1158,0.1162,0.1138,0.1141,0.1143,0.1144,0,0,0,0,0,0,0,0.0879,0.0884,0.0914,0.0906,0.0911,0.0952,0.0958,0.0997,0.1029,0.0985,0.0988,0.0993,0.1074,0.1096,0.1103,0.1164,0.1138,0.1142,0.1145,0.1146,0.1345,0.1348,0,0,0,0,0,0,0.0857,0.088,0.0911,0.0916,0.0894,0.0952,0.0959,0.0959,0.1028,0.1037,0.0993,0.0995,0.1089,0.1098,0.1106,0.122,0.1143,0.1147,0.1149,0.1342,0.1346,0.1349,0,0,0,0,0,0,0.0856,0.0859,0.0907,0.0898,0.0907,0.0952,0.0952,0.0961,0.1014,0.1033,0.1044,0.104,0.1089,0.1101,0.1189,0.1221,0.1148,0.1152,0.1339,0.1343,0.1347,0.1398,0,0,0,0,0,0,0.0855,0.0858,0.087,0.0896,0.0906,0.096,0.0952,0.0962,0.1014,0.1018,0.1077,0.1084,0.109,0.1183,0.1193,0.1226,0.1155,0.1335,0.1341,0.1346,0.1393,0.1403,0.1413,0,0,0,0,0,0.0853,0.0862,0.087,0.0875,0.0915,0.0961,0.0973,0.1006,0.1016,0.1052,0.1103,0.1084,0.1222,0.1189,0.12,0.1235,0.1333,0.1339,0.1345,0.1388,0.1401,0.1412,0,0,0,0,0,0,0.086,0.0869,0.0878,0.0892,0.0936,0.097,0.1,0.1028,0.1096,0.1106,0.1129,0.1142,0.1228,0.1236,0.1198,0.131,0.1271,0.128,0.13,0.1312,0.1322,0.133,0.1159,0,0,0,0,0,0.0863,0.0868,0.0898,0.0915,0.0934,0.0977,0.1006,0.1032,0.1082,0.1113,0.1154,0.1203,0.1258,0.129,0.1334,0.1402,0.1403,0.1431,0.1441,0.1449,0.1466,0.1503,0.1517,0.1369,0.1369,0.1369,0,0,0.087,0.0876,0.0881,0.0917,0.0948,0.0994,0.0996,0.1047,0.1101,0.1113,0.1208,0.1245,0.1288,0.1364,0.1401,0.1376,0.1492,0.1457,0.1463,0.1476,0.1511,0.1525,0.1537,0.1374,0.1373,0.1372,0,0,0.0884,0.0894,0.0908,0.0945,0.0993,0.1024,0.1047,0.1104,0.1149,0.124,0.1263,0.1332,0.141,0.1449,0.1478,0.1575,0.1546,0.1582,0.1634,0.167,0.1682,0.1692,0.1702,0.1713,0.1581,0.1581,0.1581,0,0.0902,0.0918,0.0928,0.0961,0.1002,0.1042,0.1094,0.1146,0.1232,0.1285,0.1278,0.1427,0.1452,0.1556,0.1585,0.1595,0.1601,0.1578,0.168,0.169,0.17,0.1708,0.1719,0.1585,0.1584,0.1584,0.1584,0,0.0927,0.0957,0.0974,0.1024,0.1073,0.1124,0.1186,0.1256,0.131,0.1362,0.1485,0.153,0.1615,0.163,0.1637,0.1728,0.1705,0.1687,0.164,0.1717,0.1721,0.1732,0.1589,0.1588,0.1587,0.1586,0,0,0.0953,0.0982,0.1,0.1038,0.1114,0.1162,0.1254,0.136,0.1439,0.1516,0.1616,0.1709,0.173,0.1765,0.178,0.1811,0.1872,0.178,0.178,0.1773,0.1937,0.1727,0.1717,0.1866,0.1868,0.187,0.1907,0,0.0991,0.1039,0.1058,0.1153,0.1198,0.1265,0.135,0.1449,0.1531,0.1633,0.1699,0.179,0.1781,0.1819,0.1857,0.1872,0.1905,0.1863,0.1879,0.188,0.1669,0.1725,0.151,0.1507,0.1917,0.1919,0.192,0,0.1043,0.1064,0.1132,0.1224,0.1254,0.1319,0.1472,0.1551,0.1686,0.1746,0.1843,0.1885,0.197,0.193,0.2007,0.1979,0.1974,0.1971,0.1972,0.1766,0.1689,0.1502,0.1511,0.1938,0.1936,0.1935,0.1934,0,0.1075,0.1146,0.1196,0.1227,0.1319,0.1387,0.146,0.1597,0.1668,0.1814,0.1869,0.198,0.2019,0.2055,0.2047,0.2038,0.2096,0.2076,0.1891,0.1876,0.1691,0.1653,0.2135,0.2135,0.2135,0.2135,0.2135,0,0.1127,0.1186,0.1213,0.1246,0.1333,0.1409,0.1526,0.1616,0.1732,0.1819,0.1918,0.199,0.2051,0.2085,0.2082,0.2,0.2124,0.1909,0.1875,0.1699,0.1663,0.2037,0.2025,0.2136,0.2136,0.2136,0.2135,0,0.1176,0.1186,0.1243,0.1314,0.1342,0.1411,0.1519,0.1601,0.1717,0.1826,0.1867,0.1995,0.2026,0.2052,0.209,0.2003,0.1973,0.1918,0.1684,0.1618,0.1727,0.1718,0.1722,0.1715,0.1709,0.1704,0.1699,0,0.121,0.1232,0.1265,0.1282,0.1316,0.1405,0.1464,0.1579,0.1659,0.1825,0.1874,0.1941,0.1946,0.1898,0.1761,0.1671,0.1845,0.1441,0.1369,0.172,0.1688,0.1688,0.1687,0.1164,0.1156,0.1149,0.1144,0,0.127,0.1262,0.1282,0.1292,0.1338,0.1387,0.1483,0.1527,0.1672,0.1758,0.187,0.1872,0.1748,0.1521,0.1342,0.1281,0.1425,0.1291,0.176,0.1266,0.1187,0.1157,0.1177,0.1084,0.109,0.1094,0.1098,0.11,0.1308,0.1309,0.1303,0.1317,0.1346,0.1382,0.1414,0.1513,0.1602,0.1662,0.171,0.1582,0.1294,0.0879,0.086,0.0886,0.0949,0.0903,0.0929,0.0961,0.0853,0.0763,0.0562,0.0565,0.0567,0.0569,0.0571,0,0.1347,0.1328,0.1335,0.1332,0.1332,0.1362,0.1432,0.1443,0.1518,0.1447,0.143,0.0954,0.0651,0.0573,0.0457,0.0368,0.0446,0.0424,0.0526,0.0575,0.0622,0.0507,0.0121,0.0122,0.0123,0.0124,0,0,0.1366,0.1355,0.133,0.1315,0.1312,0.1303,0.1322,0.1334,0.1273,0.1151,0.0955,0.0559,0.0408,0.0171,0.0101,0.0185,0.0433,0.0182,0.0502,0.0667,0.0719,0.0802,0.0663,0,0,0,0,0]},{"header":{"parameterUnit":"m.s-1","parameterCategory":2,"la1":30.2991,"la2":30.254,"lo1":-89.0895,"lo2":-89.0444,"dy":0.0017,"dx":0.0017,"nx":28,"ny":28,"refTime":"2023-06-26T21:00:00:Z","depth":"2","parameterNumber":3,"parameterNumberName":"V-component_of_CURRENTS"},"data":[0,0,0,0,0,0,0,0,0,0,0,0,0,0,0,0,0,0,0,0,0,0,0,0,0,0,0,0,0,0,0,0,0,0,0,0,0,0,0,0,0,0,0,0,0,0,0,0,0,0,0,0,0,0,0,0,0,0,0.0177,0.0178,0,0.0291,0.0292,0.0294,0.0334,0.0333,0.0332,0.0331,0.0215,0.0212,0.021,0,0,0,0,0,0,0,0,0,0,0,0,0,0.0158,0.0158,0.0177,0.0178,0.0179,0.029,0.0292,0.0294,0.0334,0.0333,0.0332,0.0331,0.0215,0.0213,0.021,0,0,0,0,0,0,0,0,0,0,0,0,0,0.0213,0.0157,0.0177,0.0209,0.0212,0.029,0.0292,0.0295,0.0334,0.0333,0.0332,0.0331,0.0216,0.0213,0.021,0.0214,0,0,0.0199,0.0197,0,0,0,0,0,0,0,0,0.0209,0.0214,0.0203,0.0206,0.0211,0.0293,0.0243,0.0255,0.0335,0.0293,0.0331,0.033,0.0217,0.0214,0.0248,0.0209,0.0204,0.0199,0.0197,0.0195,0.0194,0,0,0,0,0,0,0,0.0205,0.021,0.0227,0.0204,0.0209,0.0273,0.0278,0.0248,0.026,0.0297,0.0299,0.0304,0.0218,0.0252,0.0245,0.0202,0.0199,0.0196,0.0194,0.0192,0.0061,0.0059,0,0,0,0,0,0,0.0174,0.0205,0.0223,0.023,0.0201,0.0273,0.028,0.0272,0.0266,0.0264,0.0305,0.0305,0.0258,0.0249,0.024,0.0186,0.0195,0.0192,0.019,0.0062,0.006,0.0059,0,0,0,0,0,0,0.0173,0.0174,0.0218,0.0218,0.0227,0.0273,0.0265,0.0274,0.0288,0.0274,0.0269,0.0306,0.0257,0.0245,0.0211,0.0183,0.019,0.0187,0.0064,0.0062,0.006,0.0114,0,0,0,0,0,0,0.0172,0.0173,0.0155,0.0215,0.0225,0.0264,0.0266,0.0277,0.0292,0.0294,0.0272,0.0263,0.0255,0.0216,0.0207,0.0178,0.0184,0.0066,0.0063,0.006,0.0114,0.0114,0.0114,0,0,0,0,0,0.0171,0.0156,0.0154,0.0156,0.0199,0.0264,0.0278,0.031,0.0293,0.0314,0.0293,0.0262,0.0191,0.0214,0.0203,0.0173,0.0067,0.0064,0.006,0.0114,0.0114,0.0114,0,0,0,0,0,0,0.0141,0.016,0.0159,0.0149,0.0199,0.0269,0.028,0.0299,0.0307,0.0284,0.0265,0.0256,0.0211,0.0179,0.0205,0.0121,0.0114,0.0109,0.0158,0.0157,0.0157,0.0156,0.0182,0,0,0,0,0,0.0123,0.0114,0.0158,0.0153,0.0166,0.0217,0.024,0.0265,0.0282,0.0286,0.0279,0.0238,0.0196,0.0168,0.0141,0.0103,0.0066,0.0066,0.0066,0.0066,0.0055,-0.0024,-0.0032,0.0048,0.0048,0.0048,0,0,0.0116,0.0119,0.0118,0.0146,0.0177,0.0223,0.0229,0.026,0.0284,0.0263,0.0276,0.0244,0.0186,0.0157,0.0129,0.0123,0.0031,0.0062,0.0064,0.0051,-0.0028,-0.0036,-0.0043,0.0046,0.0047,0.0047,0,0,0.0118,0.0092,0.0099,0.0141,0.0178,0.0209,0.021,0.0272,0.0275,0.0292,0.0262,0.0215,0.0187,0.0143,0.0108,0.0079,0.0038,0.0057,0.0053,-0.0023,-0.0029,-0.0036,-0.0054,-0.0063,0.0051,0.0051,0.0051,0,0.0102,0.0119,0.0119,0.0154,0.0183,0.0198,0.0239,0.0254,0.0301,0.0281,0.029,0.0217,0.0174,0.0097,0.0096,0.0077,0.0051,0.0068,-0.002,-0.0028,-0.0036,-0.0053,-0.0063,0.0054,0.0053,0.0053,0.0053,0,0.0141,0.0154,0.0163,0.02,0.0232,0.0268,0.0289,0.0295,0.0287,0.03,0.0241,0.0206,0.0156,0.0126,0.0107,0.0019,0.0027,-0.0001,-0.001,-0.004,-0.0056,-0.0068,0.0057,0.0056,0.0055,0.0055,0,0,0.0099,0.0174,0.0176,0.0204,0.0256,0.0286,0.0289,0.0296,0.0271,0.0281,0.025,0.0179,0.0154,0.011,0.0068,-0.0001,-0.006,-0.0018,-0.0023,-0.0017,-0.0184,-0.0023,-0.002,-0.0098,-0.01,-0.0103,-0.0158,0,0.0128,0.02,0.0225,0.0288,0.0325,0.033,0.0336,0.033,0.031,0.0286,0.0202,0.0168,0.0146,0.012,0.0047,-0.0039,-0.0095,-0.004,-0.0174,-0.0177,-0.0017,-0.0031,-0.0083,-0.0124,-0.0169,-0.0171,-0.0173,0,0.0157,0.0198,0.0273,0.0316,0.0326,0.0362,0.034,0.0351,0.0295,0.0273,0.0217,0.0176,0.0084,0.007,-0.0084,-0.0042,-0.011,-0.0172,-0.0176,-0.006,-0.0039,-0.0114,-0.0144,-0.0193,-0.0191,-0.019,-0.0188,0,0.014,0.0218,0.027,0.0303,0.0361,0.0361,0.0372,0.0341,0.0322,0.0269,0.0249,0.015,0.0098,-0.0011,-0.0105,-0.0105,-0.0263,-0.0283,-0.0202,-0.019,-0.0278,-0.0267,-0.0405,-0.0405,-0.0405,-0.0405,-0.0404,0,0.016,0.0197,0.0269,0.0309,0.0331,0.0365,0.0359,0.0349,0.0318,0.0287,0.0247,0.0194,0.0069,-0.002,-0.0109,-0.0161,-0.0265,-0.0198,-0.0201,-0.0252,-0.0239,-0.0347,-0.0339,-0.0407,-0.0406,-0.0406,-0.0405,0,0.0146,0.0204,0.0264,0.0326,0.0338,0.0354,0.0375,0.0358,0.0343,0.0302,0.029,0.0208,0.0111,0.0016,-0.0156,-0.0144,-0.023,-0.0231,-0.0232,-0.023,-0.0103,-0.0093,-0.0138,-0.0133,-0.0129,-0.0125,-0.0122,0,0.0154,0.0189,0.0271,0.0296,0.033,0.0356,0.036,0.0366,0.035,0.03,0.027,0.0195,0.0146,0.0031,-0.0014,-0.0078,-0.0169,-0.0118,-0.0119,-0.0081,-0.0081,-0.0077,-0.0073,-0.0228,-0.0226,-0.0224,-0.0223,0,0.0155,0.0185,0.0233,0.0287,0.0315,0.0341,0.0353,0.0344,0.0332,0.03,0.0231,0.0202,0.0152,0.0069,0.0074,0.0027,-0.0092,-0.0075,-0.0124,-0.023,-0.0154,-0.0156,-0.0153,-0.0209,-0.0211,-0.0212,-0.0212,-0.0213,0.0144,0.0166,0.0224,0.0262,0.0299,0.0316,0.0316,0.0317,0.0293,0.0253,0.0225,0.0183,0.0076,0.0093,0.0054,0.0069,0.0079,0.0015,0.0002,-0.001,0.0047,0.0132,0.0142,0.0142,0.0143,0.0143,0.0144,0,0.0124,0.015,0.0188,0.0238,0.0254,0.0293,0.0296,0.0272,0.0239,0.0228,0.0202,0.0093,0.0081,0.0004,0.0059,0.0115,0.005,0.0087,-0.0081,-0.0092,-0.0103,-0.0058,0.0012,0.0012,0.0011,0.0011,0,0,0.0121,0.0135,0.015,0.0173,0.021,0.0212,0.0213,0.0183,0.0162,0.0122,0.0107,0.0118,0.0037,-0.0009,-0.0026,-0.0002,-0.0038,0.002,0.0122,-0.0086,-0.0097,-0.0145,-0.0085,0,0,0,0,0]}],[{"header":{"parameterUnit":"m.s-1","parameterCategory":2,"la1":30.2991,"la2":30.254,"lo1":-89.0895,"lo2":-89.0444,"dy":0.0017,"dx":0.0017,"nx":28,"ny":28,"refTime":"2023-06-26T21:00:00:Z","depth":"4","parameterNumber":2,"parameterNumberName":"U-component_of_CURRENTS"},"data":[0,0,0,0,0,0,0,0,0,0,0,0,0,0,0,0,0,0,0,0,0,0,0,0,0,0,0,0,0,0,0,0,0,0,0,0,0,0,0,0,0,0,0,0,0,0,0,0,0,0,0,0,0,0,0,0,0,0,-0.0657,-0.0659,0,-0.0799,-0.0801,-0.0802,-0.0819,-0.0817,-0.0815,-0.0814,-0.0973,-0.0978,-0.0984,0,0,0,0,0,0,0,0,0,0,0,0,0,-0.0532,-0.0534,-0.0657,-0.0659,-0.066,-0.0799,-0.0801,-0.0803,-0.0819,-0.0817,-0.0815,-0.0813,-0.0971,-0.0978,-0.0984,0,0,0,0,0,0,0,0,0,0,0,0,0,-0.0623,-0.0534,-0.0657,-0.0683,-0.0687,-0.0798,-0.0801,-0.0803,-0.0819,-0.0817,-0.0814,-0.0812,-0.0969,-0.0977,-0.0985,-0.1086,0,0,-0.1012,-0.1015,0,0,0,0,0,0,0,0,-0.0618,-0.0628,-0.0678,-0.0682,-0.0686,-0.0787,-0.0815,-0.0898,-0.082,-0.0771,-0.0814,-0.0811,-0.0913,-0.0926,-0.096,-0.1094,-0.1101,-0.1012,-0.1018,-0.1021,-0.1024,0,0,0,0,0,0,0,-0.0611,-0.0622,-0.0715,-0.068,-0.0685,-0.0733,-0.0743,-0.0831,-0.0856,-0.0775,-0.0776,-0.079,-0.0915,-0.0952,-0.0964,-0.1103,-0.1012,-0.102,-0.1025,-0.1028,-0.1319,-0.1322,0,0,0,0,0,0,-0.0586,-0.0616,-0.0711,-0.0719,-0.0643,-0.0737,-0.0747,-0.0759,-0.0854,-0.0866,-0.0792,-0.079,-0.0939,-0.0954,-0.097,-0.1088,-0.1021,-0.1029,-0.1034,-0.1317,-0.132,-0.1323,0,0,0,0,0,0,-0.0582,-0.0593,-0.0705,-0.0669,-0.0686,-0.074,-0.0754,-0.0763,-0.074,-0.0866,-0.0878,-0.0751,-0.0937,-0.0958,-0.1063,-0.1094,-0.1033,-0.1041,-0.1314,-0.1318,-0.1321,-0.1329,0,0,0,0,0,0,-0.0578,-0.0591,-0.0573,-0.0667,-0.0687,-0.0749,-0.0756,-0.0767,-0.0755,-0.0752,-0.0838,-0.0853,-0.0937,-0.105,-0.1072,-0.1105,-0.1048,-0.1311,-0.1316,-0.132,-0.1326,-0.1333,-0.1339,0,0,0,0,0,-0.0573,-0.056,-0.0572,-0.0582,-0.0667,-0.0749,-0.0764,-0.0797,-0.0754,-0.0761,-0.0844,-0.0847,-0.1095,-0.1061,-0.1085,-0.1121,-0.1308,-0.1314,-0.132,-0.1323,-0.1331,-0.1339,0,0,0,0,0,0,-0.0516,-0.0564,-0.0577,-0.0584,-0.0651,-0.075,-0.0729,-0.0758,-0.0824,-0.0785,-0.0897,-0.0923,-0.1028,-0.1074,-0.1032,-0.122,-0.1196,-0.1206,-0.1189,-0.1198,-0.1205,-0.1204,-0.1055,0,0,0,0,0,-0.0492,-0.0465,-0.0564,-0.0557,-0.0568,-0.0633,-0.0653,-0.0679,-0.0757,-0.0774,-0.0851,-0.0942,-0.1084,-0.1132,-0.124,-0.134,-0.1341,-0.1375,-0.1381,-0.1387,-0.1404,-0.1466,-0.1479,-0.1342,-0.1342,-0.1342,0,0,-0.0467,-0.0483,-0.0472,-0.0538,-0.056,-0.0645,-0.0636,-0.0635,-0.0735,-0.0787,-0.0888,-0.096,-0.1117,-0.1254,-0.13,-0.1285,-0.1413,-0.1394,-0.1397,-0.1413,-0.1473,-0.1486,-0.1498,-0.1346,-0.1345,-0.1345,0,0,-0.0409,-0.0406,-0.0373,-0.0441,-0.0473,-0.0564,-0.055,-0.0627,-0.0668,-0.0791,-0.0875,-0.0965,-0.1132,-0.1279,-0.1377,-0.1478,-0.1447,-0.1482,-0.1519,-0.1578,-0.1589,-0.1599,-0.1545,-0.1551,-0.1483,-0.1484,-0.1484,0,-0.037,-0.0384,-0.0384,-0.0413,-0.049,-0.0528,-0.0597,-0.068,-0.0797,-0.0856,-0.081,-0.109,-0.1169,-0.1427,-0.1462,-0.1494,-0.1476,-0.1473,-0.1583,-0.1594,-0.1604,-0.1547,-0.1553,-0.1485,-0.1484,-0.1484,-0.1484,0,-0.0345,-0.0367,-0.0348,-0.0428,-0.0516,-0.0555,-0.0708,-0.0766,-0.0799,-0.0895,-0.1057,-0.1185,-0.1351,-0.1388,-0.1464,-0.161,-0.155,-0.1579,-0.1551,-0.1617,-0.1553,-0.1559,-0.1486,-0.1486,-0.1485,-0.1485,0,0,-0.0242,-0.0315,-0.0308,-0.0389,-0.053,-0.0619,-0.0768,-0.0951,-0.1044,-0.1119,-0.1263,-0.1464,-0.1451,-0.1563,-0.1645,-0.1692,-0.1707,-0.1649,-0.1652,-0.1573,-0.1743,-0.1519,-0.1502,-0.1743,-0.1746,-0.1749,-0.1641,0,-0.0228,-0.0276,-0.0357,-0.0513,-0.0588,-0.0735,-0.0911,-0.1071,-0.117,-0.1309,-0.1418,-0.1561,-0.1556,-0.1603,-0.1665,-0.1725,-0.1735,-0.1728,-0.1713,-0.171,-0.1487,-0.1509,-0.1758,-0.1646,-0.1647,-0.1648,-0.1649,0,-0.0204,-0.0258,-0.0342,-0.0595,-0.0642,-0.0754,-0.1022,-0.1182,-0.1389,-0.1452,-0.1573,-0.1645,-0.1784,-0.1728,-0.1825,-0.181,-0.177,-0.177,-0.1767,-0.157,-0.15,-0.1589,-0.1659,-0.1658,-0.1657,-0.1657,-0.1656,0,-0.0139,-0.0294,-0.0359,-0.0437,-0.0695,-0.0774,-0.0931,-0.1158,-0.1331,-0.1493,-0.1578,-0.1739,-0.1795,-0.1826,-0.1804,-0.1809,-0.184,-0.1854,-0.1613,-0.1592,-0.1821,-0.1813,-0.1892,-0.1892,-0.1892,-0.1892,-0.1893,0,-0.0133,-0.0211,-0.0305,-0.0353,-0.0524,-0.0706,-0.0906,-0.1064,-0.1307,-0.1452,-0.1602,-0.166,-0.1814,-0.1854,-0.1824,-0.1702,-0.1845,-0.1607,-0.157,-0.1815,-0.1809,-0.1819,-0.1812,-0.1888,-0.1889,-0.189,-0.1891,0,-0.0056,-0.0102,-0.0212,-0.0395,-0.047,-0.0567,-0.09,-0.1065,-0.1245,-0.1429,-0.1476,-0.1632,-0.1557,-0.1687,-0.1692,-0.1679,-0.1622,-0.1541,-0.1724,-0.1701,-0.1317,-0.1312,-0.1253,-0.1244,-0.1237,-0.1231,-0.1226,0,-0.0031,-0.0033,-0.0173,-0.0251,-0.0312,-0.0504,-0.0674,-0.097,-0.1092,-0.1319,-0.1343,-0.1386,-0.1429,-0.1286,-0.1365,-0.1328,-0.132,-0.1342,-0.1397,-0.1291,-0.1262,-0.1268,-0.1273,-0.1215,-0.1213,-0.1211,-0.1209,0,-0.0009,0.002,-0.006,-0.0176,-0.0306,-0.0539,-0.0706,-0.0774,-0.1041,-0.1256,-0.118,-0.1185,-0.1092,-0.1049,-0.107,-0.1036,-0.1382,-0.1268,-0.1283,-0.1335,-0.1245,-0.1224,-0.1237,-0.1185,-0.1188,-0.1191,-0.1192,0,0.0022,0.0003,-0.0043,-0.0171,-0.0327,-0.0447,-0.0585,-0.0683,-0.0854,-0.103,-0.0912,-0.0926,-0.0976,-0.0877,-0.0845,-0.0852,-0.083,-0.0907,-0.0941,-0.0969,-0.0935,-0.0783,-0.0538,0,0,0,0,0,0.0009,-0.001,-0.0095,-0.0201,-0.0323,-0.0436,-0.0596,-0.071,-0.0841,-0.0764,-0.087,-0.074,-0.0683,-0.0633,-0.057,-0.068,-0.0839,-0.0611,-0.0946,-0.1048,-0.1077,-0.1068,0,0,0,0,0,0,-0.0024,-0.0056,-0.008,-0.0185,-0.0246,-0.0427,-0.0506,-0.0606,-0.0531,-0.0623,-0.0536,-0.07,-0.0584,-0.0683,-0.0545,-0.0554,-0.0756,-0.0637,-0.0636,-0.1032,-0.1058,-0.1081,-0.1082,0,0,0,0,0]},{"header":{"parameterUnit":"m.s-1","parameterCategory":2,"la1":30.2991,"la2":30.254,"lo1":-89.0895,"lo2":-89.0444,"dy":0.0017,"dx":0.0017,"nx":28,"ny":28,"refTime":"2023-06-26T21:00:00:Z","depth":"4","parameterNumber":3,"parameterNumberName":"V-component_of_CURRENTS"},"data":[0,0,0,0,0,0,0,0,0,0,0,0,0,0,0,0,0,0,0,0,0,0,0,0,0,0,0,0,0,0,0,0,0,0,0,0,0,0,0,0,0,0,0,0,0,0,0,0,0,0,0,0,0,0,0,0,0,0,-0.018,-0.0181,0,-0.0249,-0.025,-0.0251,-0.0184,-0.0182,-0.0179,-0.0177,-0.0118,-0.0119,-0.012,0,0,0,0,0,0,0,0,0,0,0,0,0,-0.0042,-0.0044,-0.018,-0.0181,-0.0182,-0.0249,-0.025,-0.0251,-0.0185,-0.0181,-0.0178,-0.0175,-0.0118,-0.0119,-0.012,0,0,0,0,0,0,0,0,0,0,0,0,0,-0.0105,-0.0045,-0.018,-0.0157,-0.0156,-0.0249,-0.025,-0.0251,-0.0185,-0.0181,-0.0177,-0.0174,-0.0118,-0.0119,-0.012,-0.0206,0,0,-0.0124,-0.0125,0,0,0,0,0,0,0,0,-0.0101,-0.011,-0.016,-0.0159,-0.0158,-0.0205,-0.018,-0.023,-0.0186,-0.0174,-0.0176,-0.0172,-0.0139,-0.0138,-0.016,-0.0203,-0.02,-0.0124,-0.0125,-0.0125,-0.0126,0,0,0,0,0,0,0,-0.0097,-0.0107,-0.0207,-0.0161,-0.016,-0.0161,-0.0165,-0.019,-0.0174,-0.0174,-0.017,-0.018,-0.0136,-0.016,-0.0158,-0.02,-0.0124,-0.0125,-0.0126,-0.0126,-0.0169,-0.0169,0,0,0,0,0,0,-0.0092,-0.0103,-0.0205,-0.0209,-0.012,-0.0167,-0.0171,-0.0193,-0.0177,-0.0172,-0.0183,-0.0177,-0.0159,-0.0157,-0.0156,-0.0142,-0.0125,-0.0127,-0.0127,-0.0168,-0.0169,-0.0169,0,0,0,0,0,0,-0.0089,-0.0101,-0.0202,-0.0157,-0.0169,-0.0173,-0.0198,-0.0196,-0.0177,-0.0185,-0.0176,-0.0159,-0.0156,-0.0154,-0.0153,-0.0142,-0.0127,-0.0128,-0.0168,-0.0168,-0.0169,-0.0187,0,0,0,0,0,0,-0.0085,-0.01,-0.0092,-0.0157,-0.0172,-0.0251,-0.0202,-0.0201,-0.0192,-0.0183,-0.0163,-0.0156,-0.0153,-0.0152,-0.0155,-0.0144,-0.0129,-0.0167,-0.0168,-0.0169,-0.0186,-0.0188,-0.019,0,0,0,0,0,-0.008,-0.0113,-0.0092,-0.0102,-0.0169,-0.0253,-0.0261,-0.0249,-0.0194,-0.021,-0.0181,-0.0154,-0.0156,-0.0154,-0.0157,-0.0147,-0.0167,-0.0168,-0.0169,-0.0185,-0.0187,-0.0189,0,0,0,0,0,0,-0.0052,-0.0111,-0.0089,-0.0134,-0.0177,-0.0241,-0.0244,-0.0237,-0.0232,-0.0192,-0.0179,-0.0174,-0.0163,-0.0163,-0.016,-0.0159,-0.015,-0.0152,-0.0161,-0.0164,-0.0166,-0.0157,-0.013,0,0,0,0,0,-0.0043,-0.0069,-0.013,-0.0156,-0.0172,-0.0196,-0.0213,-0.0213,-0.023,-0.022,-0.0209,-0.0187,-0.0183,-0.0175,-0.0179,-0.0198,-0.0158,-0.0186,-0.0188,-0.019,-0.0184,-0.0101,-0.0094,-0.0172,-0.0171,-0.0171,0,0,-0.0038,-0.0069,-0.0081,-0.0148,-0.0164,-0.0223,-0.0195,-0.0225,-0.0246,-0.0217,-0.0214,-0.0197,-0.019,-0.0199,-0.0192,-0.0188,-0.0154,-0.0191,-0.0192,-0.0186,-0.0101,-0.0093,-0.0086,-0.0172,-0.0172,-0.0172,0,0,-0.0071,-0.0065,-0.0104,-0.0148,-0.0184,-0.0212,-0.0214,-0.0262,-0.024,-0.027,-0.0227,-0.0192,-0.0225,-0.0195,-0.0189,-0.0205,-0.0166,-0.0213,-0.0217,-0.0137,-0.0129,-0.0122,-0.0088,-0.0077,-0.0214,-0.0214,-0.0214,0,-0.0045,-0.0117,-0.0129,-0.0188,-0.0218,-0.0205,-0.0264,-0.0268,-0.0303,-0.0279,-0.0263,-0.0237,-0.0215,-0.0194,-0.0199,-0.0203,-0.0178,-0.0209,-0.0137,-0.0128,-0.012,-0.0087,-0.0075,-0.0215,-0.0215,-0.0215,-0.0214,0,-0.0136,-0.0173,-0.0201,-0.026,-0.0297,-0.0345,-0.0365,-0.0359,-0.0324,-0.0319,-0.0278,-0.0253,-0.0233,-0.0216,-0.022,-0.0161,-0.0169,-0.0146,-0.0126,-0.0113,-0.008,-0.0067,-0.0216,-0.0216,-0.0215,-0.0215,0,0,-0.0114,-0.0239,-0.0235,-0.0278,-0.0335,-0.0385,-0.0391,-0.0407,-0.0381,-0.0363,-0.0332,-0.0297,-0.0253,-0.0242,-0.0215,-0.0143,-0.0067,-0.0134,-0.0129,-0.0093,0.0071,-0.0065,-0.0064,-0.0035,-0.0032,-0.003,0.0062,0,-0.0161,-0.0287,-0.033,-0.0421,-0.0488,-0.0481,-0.0499,-0.0489,-0.0452,-0.0418,-0.0325,-0.0302,-0.0273,-0.026,-0.018,-0.0089,-0.0031,-0.0097,0.0047,0.005,-0.0064,-0.0052,-0.0021,0.0072,0.0075,0.0078,0.0079,0,-0.0222,-0.0304,-0.0402,-0.0507,-0.0526,-0.0551,-0.0543,-0.0572,-0.0499,-0.0471,-0.0401,-0.0353,-0.0254,-0.023,-0.0051,-0.0102,-0.0029,0.005,0.0056,-0.0052,-0.0061,0.0063,0.0103,0.0101,0.01,0.0098,0.0097,0,-0.0208,-0.0347,-0.0415,-0.0454,-0.0562,-0.0549,-0.0578,-0.0543,-0.0554,-0.0483,-0.0466,-0.0354,-0.0286,-0.0161,-0.0036,-0.0038,0.0159,0.0185,0.0132,0.0122,0.0228,0.022,0.0309,0.0309,0.0308,0.0308,0.0308,0,-0.0255,-0.0315,-0.0396,-0.0439,-0.0499,-0.0549,-0.0567,-0.0571,-0.0551,-0.0544,-0.0481,-0.0451,-0.0261,-0.0148,-0.0036,0.0069,0.016,0.0128,0.0143,0.0211,0.02,0.0236,0.0226,0.0311,0.0311,0.031,0.0309,0,-0.0243,-0.0301,-0.0397,-0.0478,-0.0495,-0.0524,-0.0599,-0.0628,-0.0593,-0.0575,-0.0563,-0.0483,-0.0374,-0.0224,-0.0012,0.0056,0.0178,0.0186,0.0212,0.0227,0.0088,0.0076,0.0151,0.0147,0.0143,0.0141,0.0138,0,-0.027,-0.0304,-0.0396,-0.0452,-0.0477,-0.0536,-0.059,-0.0627,-0.0625,-0.06,-0.0568,-0.0505,-0.0445,-0.0238,-0.0111,0.0053,0.007,0.0146,0.0147,0.0068,0.0076,0.0069,0.0062,0.0133,0.0132,0.0131,0.013,0,-0.0316,-0.0302,-0.0379,-0.0465,-0.0521,-0.0642,-0.0668,-0.0648,-0.0658,-0.0651,-0.0571,-0.0517,-0.042,-0.0286,-0.0185,-0.0058,0.0114,0.0113,0.0121,0.0122,0.0048,0.0058,0.0055,0.0119,0.0121,0.0122,0.0122,0,-0.0325,-0.0378,-0.0431,-0.0488,-0.0605,-0.0672,-0.0702,-0.0687,-0.0695,-0.0584,-0.0572,-0.05,-0.0434,-0.035,-0.0248,-0.0165,-0.0138,-0.0052,-0.0034,-0.002,-0.0122,-0.0244,-0.0249,0,0,0,0,0,-0.0342,-0.0385,-0.0474,-0.0544,-0.0647,-0.0694,-0.0741,-0.0742,-0.0669,-0.0615,-0.0578,-0.0508,-0.0423,-0.0392,-0.0332,-0.0334,-0.014,-0.0264,-0.0034,0.0056,0.0069,-0.0037,0,0,0,0,0,0,-0.0383,-0.0449,-0.0471,-0.0546,-0.059,-0.0713,-0.0743,-0.0712,-0.0638,-0.0558,-0.0512,-0.0481,-0.0402,-0.0445,-0.0323,-0.0309,-0.0152,-0.0224,-0.0222,0.0048,0.006,0.0071,-0.0033,0,0,0,0,0]}]]